{"data":{"norad_id":55571,"intl_designator":"2023-020C","name":"STARLINK-5739","alt_names":[],"object_type":"PAYLOAD","status":"ACTIVE","operator":null,"country":"US","launch_date":"2023-02-12","launch_site_code":"AFETR","launch_vehicle":null,"mission":null,"orbit_class":"UNKNOWN","rcs_meters":null,"size_class":null,"mass_kg":null,"dimensions":null,"purposes":["comms"],"wikipedia_slug":null,"has_3d_model":false,"image_url":null,"decayed_at":null,"tle_current":{"epoch":"2026-09-20T22:31:04.326528Z","epoch_age_seconds":62522,"freshness":"FRESH","line1":"1 55571U 23020C   26263.93824452 -.00000170  00000+0  33495-5 0  9993","line2":"2 55571  43.0041 345.9448 0001103 273.4498  86.6227 15.27574219198738","mean_motion":15.27574219,"eccentricity":0.0001103,"inclination_deg":43.0041,"raan_deg":345.9448,"arg_perigee_deg":273.4498,"mean_anomaly_deg":86.6227,"bstar":3.3495e-6,"rev_number":19873,"period_min":94.267105459705,"perigee_km":482.30961575221,"apogee_km":483.82319722368,"semimajor_km":6861.2034064879,"source":"CELESTRAK","updated_at":"2026-09-21T09:00:33.262610Z"}}}